Weather reports worldwide

Advertisment
Bilbao/Aeropuerto, Spain (8025): temperature & dewpoint: 13.01.2021 05:00:00 - 19.01.2021 05:00:00 (CET)Bilbao/Aeropuerto, Spain (8025): wind speed: 13.01.2021 05:00:00 - 19.01.2021 05:00:00 (CET)Bilbao/Aeropuerto, Spain (8025): wind direction: 13.01.2021 05:00:00 - 19.01.2021 05:00:00 (CET)Bilbao/Aeropuerto, Spain (8025): reduced air pressure: 13.01.2021 05:00:00 - 19.01.2021 05:00:00 (CET)Bilbao/Aeropuerto, Spain (8025): visibility: 13.01.2021 05:00:00 - 19.01.2021 05:00:00 (CET)
Date & Time tt [°C] td [°C] ff [km/h] ff [kn] dd ppp [hPa] vv [km]
19.01.2021 05:00:00 5,6 3,8 0 0 N 1022,3 -
19.01.2021 04:00:00 6,7 4,9 9 5 E 1022,9 -
19.01.2021 03:00:00 3,7 3,3 5 3 ENE 1023,6 -
19.01.2021 02:00:00 4,9 4,5 4 2 NE 1024,2 -
19.01.2021 01:00:00 5,1 4,7 8 4 ENE 1024,7 -
19.01.2021 00:00:00 5,3 5,0 9 5 E 1025,2 -
18.01.2021 23:00:00 5,3 5,0 8 4 E 1025,6 -
18.01.2021 22:00:00 5,8 5,5 5 3 E 1025,8 30
18.01.2021 21:00:00 6,5 6,1 8 4 E 1026,1 -
18.01.2021 20:00:00 7,0 6,4 8 4 E 1026,7 -
18.01.2021 19:00:00 8,9 7,5 4 2 E 1026,8 20
18.01.2021 18:00:00 10,7 7,9 8 4 WSW 1026,6 -
18.01.2021 17:00:00 13,4 8,2 2 1 ESE 1026,6 -
18.01.2021 16:00:00 12,6 8,7 8 4 ENE 1027,0 20
18.01.2021 15:00:00 12,6 8,5 2 1 NNW 1027,3 -
18.01.2021 14:00:00 11,9 8,9 4 2 ENE 1028,0 -
18.01.2021 13:00:00 11,5 8,8 4 2 E 1028,8 10
18.01.2021 12:00:00 10,0 8,8 8 4 E 1029,6 -
18.01.2021 11:00:00 - - - - - - -
18.01.2021 10:00:00 8,5 8,5 5 3 NE 1029,7 15
18.01.2021 09:00:00 - - - - - - -
18.01.2021 08:00:00 7,8 7,7 5 3 NE 1029,8 -
18.01.2021 07:00:00 7,6 7,5 4 2 E 1029,7 2,0
18.01.2021 06:00:00 7,5 7,4 0 0 N 1029,4 -
18.01.2021 05:00:00 7,2 7,1 5 3 E 1029,4 -
18.01.2021 04:00:00 6,5 6,2 0 0 N 1029,6 -
18.01.2021 03:00:00 7,0 6,7 5 3 E 1029,7 -
18.01.2021 02:00:00 8,1 7,7 4 2 ESE 1029,8 -
18.01.2021 01:00:00 8,6 8,0 4 2 ESE 1030,5 -
18.01.2021 00:00:00 8,8 8,3 9 5 E 1030,6 -
17.01.2021 23:00:00 9,0 8,7 9 5 E 1030,7 -
17.01.2021 22:00:00 9,2 8,9 5 3 E 1030,5 8
17.01.2021 21:00:00 9,4 9,1 4 2 E 1030,6 -
17.01.2021 20:00:00 9,6 9,3 8 4 E 1030,6 -
17.01.2021 19:00:00 9,9 9,6 8 4 NE 1030,3 2,0
17.01.2021 18:00:00 10,6 10,3 4 2 W 1029,9 -
17.01.2021 17:00:00 10,8 10,5 5 3 W 1029,5 -
17.01.2021 16:00:00 10,3 10,0 2 1 SSE 1029,6 2,0
17.01.2021 15:00:00 10,1 9,8 4 2 SE 1029,6 -
17.01.2021 14:00:00 9,8 9,5 4 2 ENE 1029,9 -
17.01.2021 13:00:00 9,2 8,9 4 2 E 1030,5 2,5
17.01.2021 12:00:00 8,6 8,2 4 2 E 1031,0 -
17.01.2021 11:00:00 7,6 6,7 8 4 ENE 1030,9 -
17.01.2021 10:00:00 6,6 4,6 8 4 E 1030,4 12
17.01.2021 09:00:00 5,7 4,5 5 3 E 1030,0 -
17.01.2021 08:00:00 5,0 3,8 8 4 ENE 1029,8 -
17.01.2021 07:00:00 4,7 3,5 8 4 ENE 1029,7 15
17.01.2021 06:00:00 4,4 3,5 8 4 E 1029,7 -
17.01.2021 05:00:00 4,0 3,3 5 3 ENE 1029,6 -
17.01.2021 04:00:00 3,6 3,0 8 4 E 1029,6 -
17.01.2021 03:00:00 3,8 3,2 8 4 E 1029,9 -
17.01.2021 02:00:00 3,4 2,8 5 3 E 1030,1 -
17.01.2021 01:00:00 4,3 3,6 8 4 E 1029,9 -
17.01.2021 00:00:00 5,2 4,5 5 3 E 1030,1 -
16.01.2021 23:00:00 5,6 4,7 - - - 1030,1 -
16.01.2021 22:00:00 6,1 4,9 8 4 E 1030,2 15
16.01.2021 21:00:00 6,9 5,5 5 3 ENE 1030,4 -
16.01.2021 20:00:00 7,8 5,5 8 4 NE 1030,3 -
16.01.2021 19:00:00 9,0 5,9 4 2 W 1030,1 20
16.01.2021 18:00:00 10,4 5,6 5 3 W 1029,2 -
16.01.2021 17:00:00 12,4 5,6 8 4 WSW 1029,0 -
16.01.2021 16:00:00 12,6 4,5 15 8 W 1028,8 40
16.01.2021 15:00:00 13,8 3,2 8 4 W 1028,9 -
16.01.2021 14:00:00 12,9 3,2 5 3 W 1029,2 -
16.01.2021 13:00:00 11,4 5,5 4 2 ENE 1030,0 30
16.01.2021 12:00:00 10,2 6,3 5 3 SE 1030,6 -
16.01.2021 11:00:00 8,1 6,5 2 1 S 1030,8 -
16.01.2021 10:00:00 5,0 4,7 4 2 ENE 1030,8 6
16.01.2021 09:00:00 4,4 4,0 5 3 E 1030,8 -
16.01.2021 08:00:00 4,9 4,5 9 5 E 1030,8 -
16.01.2021 07:00:00 5,5 5,1 8 4 E 1030,7 15
16.01.2021 06:00:00 6,3 5,9 8 4 E 1030,4 -
16.01.2021 05:00:00 6,4 6,1 5 3 E 1030,7 -
16.01.2021 04:00:00 6,1 5,8 9 5 ENE 1030,9 -
16.01.2021 03:00:00 6,2 5,8 5 3 E 1030,8 -
16.01.2021 02:00:00 6,2 5,8 5 3 E 1031,0 -
16.01.2021 01:00:00 6,6 6,0 2 1 ENE 1031,2 -
16.01.2021 00:00:00 6,8 6,0 8 4 E 1031,5 -
15.01.2021 23:00:00 6,8 5,9 8 4 E 1031,7 -
15.01.2021 22:00:00 7,9 6,0 2 1 NW 1031,4 15
15.01.2021 21:00:00 8,5 6,1 4 2 SSE 1031,5 -
15.01.2021 20:00:00 9,7 5,7 8 4 W 1031,3 -
15.01.2021 19:00:00 9,2 5,4 5 3 W 1031,2 15
15.01.2021 18:00:00 9,6 5,2 9 5 NW 1031,0 -
15.01.2021 17:00:00 10,8 5,9 15 8 NW 1030,9 -
15.01.2021 16:00:00 11,5 6,4 18 10 NNW 1030,6 30
15.01.2021 15:00:00 12,3 5,8 22 12 NW 1030,4 -
15.01.2021 14:00:00 11,6 6,7 18 10 NW 1031,1 -
15.01.2021 13:00:00 11,6 8,2 21 11 WNW 1031,7 -
15.01.2021 12:00:00 11,0 8,4 18 10 WNW 1032,3 -
15.01.2021 11:00:00 9,8 8,6 0 0 N 1032,3 -
15.01.2021 10:00:00 8,9 7,7 5 3 W 1031,8 15
15.01.2021 09:00:00 8,6 7,8 0 0 N 1031,1 -
15.01.2021 08:00:00 8,7 7,9 4 2 WSW 1030,9 -
15.01.2021 07:00:00 8,8 7,9 4 2 WSW 1030,4 15
15.01.2021 06:00:00 8,7 7,6 5 3 WNW 1030,4 -
15.01.2021 05:00:00 8,9 7,8 8 4 W 1030,5 -
15.01.2021 04:00:00 8,0 7,1 8 4 W 1030,6 -
15.01.2021 03:00:00 7,6 6,7 8 4 W 1030,3 -
15.01.2021 02:00:00 8,4 7,8 4 2 W 1030,2 -
15.01.2021 01:00:00 8,2 7,8 4 2 WNW 1030,3 -
15.01.2021 00:00:00 9,5 9,0 4 2 W 1030,2 -
14.01.2021 23:00:00 10,2 9,4 11 6 W 1030,4 -
14.01.2021 22:00:00 10,5 9,1 11 6 NW 1030,0 15
14.01.2021 21:00:00 10,5 9,7 21 11 NW 1029,7 -
14.01.2021 20:00:00 8,4 8,1 5 3 E 1029,3 -
14.01.2021 19:00:00 8,3 7,9 5 3 E 1029,2 15
14.01.2021 18:00:00 8,3 7,7 8 4 E 1029,1 -
14.01.2021 17:00:00 8,4 7,6 8 4 E 1029,3 -
14.01.2021 16:00:00 9,2 7,4 8 4 W 1029,4 3,5
14.01.2021 15:00:00 10,8 4,5 13 7 SSW 1029,0 -
14.01.2021 14:00:00 11,3 3,5 13 7 SW 1029,5 -
14.01.2021 13:00:00 11,4 3,5 11 6 SW 1030,0 30
14.01.2021 12:00:00 9,4 4,4 0 0 N 1031,1 -
14.01.2021 11:00:00 7,2 4,9 5 3 NNE 1031,5 -
14.01.2021 10:00:00 6,4 4,7 5 3 ENE 1031,4 30
14.01.2021 09:00:00 6,0 4,6 5 3 ENE 1031,1 -
14.01.2021 08:00:00 5,9 4,4 5 3 ENE 1030,9 -
14.01.2021 07:00:00 5,8 4,6 5 3 E 1030,8 15
14.01.2021 06:00:00 5,7 4,5 5 3 E 1030,9 -
14.01.2021 05:00:00 5,5 4,5 5 3 E 1031,3 -
14.01.2021 04:00:00 5,5 4,6 8 4 E 1031,6 -
14.01.2021 03:00:00 5,2 4,5 8 4 ENE 1032,0 -
14.01.2021 02:00:00 4,7 4,0 8 4 E 1031,8 -
14.01.2021 01:00:00 4,8 4,1 8 4 E 1032,4 -
14.01.2021 00:00:00 5,3 4,4 5 3 E 1032,7 -
13.01.2021 23:00:00 5,5 4,6 8 4 E 1032,7 -
13.01.2021 22:00:00 5,4 4,4 8 4 E 1032,4 20
13.01.2021 21:00:00 5,7 4,5 8 4 E 1032,1 -
13.01.2021 20:00:00 6,6 5,1 4 2 E 1032,0 -
13.01.2021 19:00:00 6,9 4,9 5 3 E 1031,8 20
13.01.2021 18:00:00 9,7 5,1 0 0 N 1031,5 -
13.01.2021 17:00:00 11,3 5,5 4 2 ESE 1031,5 -
13.01.2021 16:00:00 10,8 5,1 0 0 N 1031,5 30
13.01.2021 15:00:00 10,6 5,1 4 2 SE 1031,3 -
13.01.2021 14:00:00 10,2 4,8 5 3 ENE 1031,9 -
13.01.2021 13:00:00 9,8 4,8 5 3 E 1032,5 40
13.01.2021 12:00:00 8,8 5,3 4 2 E 1033,2 -
13.01.2021 11:00:00 7,9 4,7 8 4 E 1033,2 -
13.01.2021 10:00:00 7,1 4,7 4 2 E 1033,2 40
13.01.2021 09:00:00 6,9 4,2 5 3 E 1032,7 -
13.01.2021 08:00:00 6,6 4,6 5 3 E 1032,2 -
13.01.2021 07:00:00 6,7 4,2 4 2 E 1032,1 15
13.01.2021 06:00:00 6,6 4,6 8 4 ENE 1032,0 -
13.01.2021 05:00:00 6,7 4,4 4 2 E 1032,1 -

tt = temperature
td = dewpoint
ff = wind speed
dd = wind direction
ppp = reduced air pressure
vv = visibility

Next stations